STARLINK-32767, 62601

Orbit data source: Space-Track

STARLINK-32767, 62601 is a payload satellite owned by SpaceX/Seattle (US) in LEO that was launched on Mon, 13 Jan 2025 UTC via an FALCON 9 launch vehicle from the Air Force Eastern Test Range (AFETR). Payloads include a variety of satellites, spacecraft, and rockets equipped with specific instruments for various scientific and technological missions. These include communications satellites like Starlink; space stations such as the ISS; scientific satellites like the Hubble; Earth observation satellites from companies like Planet Labs, Umbra, and HawkEye 360; GPS; miniature CubeSats for education and research; and military/defense satellites.

Loading next visibility...
STARLINK-32767 details
Identifier
62601, 2025-008Q
Orbit
LEO
Last TLE update9 hours ago
Origin
Flag of USSpaceX/Seattle (US)
ManufacturerSpaceX/Seattle
MissionOperational spacecraft
Bus & MotorSTARLINK V2M, Unknown motor
Mass730 kg wet, ~700 kg dry
Launch date (UTC)
2025-01-13 (1 month ago)
Launch vehicle
FALCON 9
Launch site
Air Force Eastern Test Range (AFETR)
Object type
Payload
Rocket body
Debris
Shape & HBRUnknown
Radar Cross SectionLarge (>1 m²)

Expand to show TLE details & history

TLE from 9 hours ago
0 STARLINK-32767
1 62601U 25008Q   25047.09552205 -.00000738  00000-0 -10407-4 0  9992
2 62601  43.0027 302.6067 0001516 266.0483  94.0201 15.40695134  6470
Epoch: 2025-02-16T02:17Z
Definitive object data (Epoch: 2025-02-16T02:17:33.105Z)
Latitude0.00005°
Longitude121.88532°
Altitude443.904 km
Speed7.648 km/s
True Right ascension20h 10m 25s
True Declination0° 00' 00"
Sunlit
Object was in daylight at TLE epoch
Visualization TLE readout
Latitude-34.53455°
Longitude72.49471°
Altitude453.022 km
Speed7.642 km/s
Apparent Right ascension20h 48m 45s
Apparent Declination-64° 44' 35"
Sunlit
Object is in daylight
Visualization observer readout
Local Sidereal Time14:09:31
Azimuth146.984° SSE
Elevation-39.499°
Doppler factor1
Orbital elements
Apogee altitude447.047 km
Perigee altitude444.978 km
Semi-major axis6,824.149 km
Eccentricity0.0001516
Inclination43.0027°
RAAN302.6067°
Arg. of periapsis266.0483°
True anomaly94.03743°
Mean anomaly94.0201°
Eccentric anomaly94.02876°
Mean motion3.85009 °/min
BSTAR-0.000010407
Orbital period93.5 mins
Loading maneuver chart data...
Loading historical data...
Loading historical data...
Loading historical data...
Loading historical data...
Loading historical data...
Loading historical data...
Loading historical data...

STARLINK-32767 Visibility forecast

Observer location: undefined°, undefined

Span
Click to sort rows by Start time (UTC) header in descending order
Start Az.
Max El. time (UTC)
Max El. Az.
Max El.
End time (UTC)
End Az.
4 mins2025-02-16 19:36:10.294Z184.99° SSW2025-02-16 19:38:10.294Z142.444° SSE19.13°2025-02-16 19:40:10.294Z102.498° ESE
5 mins2025-02-16 21:14:10.294Z249.35° W2025-02-16 21:16:10.294Z77.057° E43.238°2025-02-16 21:19:10.294Z72.168° E
5 mins2025-02-16 22:52:10.294Z292.539° NW2025-02-16 22:54:10.294Z6.586° NNE37.034°2025-02-16 22:57:10.294Z73.924° E
5 mins2025-02-17 00:30:10.294Z291.422° WNW2025-02-17 00:32:10.294Z338.298° N44.023°2025-02-17 00:35:10.294Z102.461° ESE
|